Terminal Aerodrome Forecast
Issued by NWS

Home | Current Version | Previous Version | Text Only | Print | Product List | Glossary On
Versions: 1 2 3 4 5 6 7 8 9 10 11 12 13 14 15 16 17 18 19 20 21 22 23
000
FTUS43 KDTX 261700
TAFYIP
TAF
KYIP 261736Z 2618/2718 20010KT P6SM SCT050 BKN120
      TEMPO 2618/2620 BKN050
     FM262000 23010KT P6SM BKN040 BKN080
      TEMPO 2620/2623 4SM SHRA BKN035
     FM270000 24008KT P6SM SCT030 BKN050
     FM270600 25003KT 4SM BR SCT120
     FM271300 19008KT P6SM BKN120
     FM271600 19008KT 5SM -SHRA SCT015 BKN035=

USA.gov is the U.S. government's official web portal to all federal, state and local government web resources and services.